[[[{"header":{"parameterUnit":"kt","parameterCategory":2,"dx":1,"dy":1,"la1":30.253999710083008,"la2":30.299108505249023,"lo1":-89.0895004272461,"lo2":-89.04439544677734,"nx":28,"ny":28,"refTime":"2022-10-30T21:00:00:Z","depth":0,"parameterNumber":1,"parameterNumberName":"U-component_of_WINDS"},"data":[0.9364,0.9457,0.9472,0.9586,0.9618,0.9699,0.9733,0.9778,0.9818,0.9917,0.9977,1.0003,1.005,1.0126,1.0193,1.0203,1.023,1.0252,1.026,1.0146,1.0131,1.0117,1.0094,1.0258,1.0258,1.0377,1.0378,1.0379,0.9278,0.931,0.9375,0.9447,0.9503,0.949,0.9547,0.9594,0.9668,0.9718,0.9778,0.9867,0.994,0.998,1.0053,1.0099,1.0098,1.0118,1.0114,1.0122,1.0,0.9976,1.0118,1.0118,1.0117,1.0117,1.0117,1.0117,0.9126,0.9181,0.9233,0.9303,0.9344,0.9392,0.9449,0.9478,0.9542,0.9619,0.9624,0.9708,0.9762,0.9858,0.9894,0.9961,0.9941,0.9968,0.9975,0.9982,0.9987,0.9813,0.9974,0.9974,0.9973,0.9973,0.9973,0,0.9018,0.9026,0.9089,0.9156,0.9208,0.9262,0.9314,0.935,0.9373,0.9426,0.9503,0.955,0.9644,0.9719,0.9791,0.9824,0.9817,0.9818,0.9837,0.9835,0.9824,0.983,0.963,0.9813,0.9812,0.9811,0.981,0.981,0.8866,0.8929,0.899,0.9032,0.9064,0.9133,0.9176,0.9192,0.9238,0.9306,0.9355,0.943,0.9491,0.9614,0.9649,0.972,0.9717,0.9785,0.9728,0.9723,0.9718,0.9714,0.9721,0.9796,0.9798,0.9799,0.98,0,0.8778,0.8801,0.8904,0.8959,0.8974,0.9041,0.9088,0.9145,0.9167,0.925,0.927,0.9305,0.9382,0.9406,0.9498,0.9508,0.962,0.9615,0.9601,0.9601,0.9665,0.9658,0.9866,0.9894,0.9725,0.9727,0.9728,0,0.8657,0.874,0.8769,0.8828,0.8921,0.8934,0.9026,0.9054,0.91,0.9165,0.9159,0.9221,0.9242,0.9307,0.9322,0.9417,0.9435,0.9448,0.9452,0.9449,0.9447,0.9474,0.9466,0.9456,0.9455,0.9454,0.9453,0,0.8517,0.8631,0.8726,0.8755,0.8822,0.8867,0.8898,0.8949,0.8992,0.9053,0.9081,0.9151,0.9189,0.9244,0.9262,0.9223,0.9379,0.9329,0.9393,0.9393,0.9427,0.9425,0.9603,0.9452,0.9451,0.9451,0.9451,0,0.8423,0.8482,0.8616,0.8672,0.8701,0.8764,0.8833,0.8892,0.8947,0.896,0.9008,0.9008,0.9093,0.9041,0.9158,0.9101,0.9139,0.916,0.9165,0.9174,0.9115,0.9212,0.9379,0.9397,0.9182,0.918,0.9178,0,0.8257,0.8399,0.841,0.8539,0.8607,0.8596,0.8667,0.8715,0.8739,0.8801,0.8828,0.89,0.8866,0.8891,0.8947,0.8977,0.9052,0.8968,0.906,0.9063,0.9045,0.9199,0.9217,0.934,0.915,0.9153,0.9155,0,0.8131,0.821,0.8233,0.8267,0.8332,0.839,0.8471,0.8544,0.8585,0.864,0.871,0.8811,0.879,0.8833,0.884,0.8896,0.9002,0.8866,0.8867,0.8889,0.9138,0.9155,0.9176,0.8994,0.8998,0.9,0.9133,0,0.7983,0.8057,0.8117,0.8192,0.824,0.8322,0.8345,0.8393,0.8394,0.8417,0.8519,0.8566,0.8642,0.8672,0.8674,0.8795,0.8778,0.8755,0.8706,0.8806,0.8851,0.8869,0.8638,0.8636,0.8635,0.8634,0,0,0.7819,0.7924,0.7934,0.8013,0.8054,0.8041,0.8126,0.8165,0.8244,0.8274,0.8246,0.8396,0.8436,0.8558,0.8591,0.8622,0.8646,0.861,0.8758,0.8772,0.8785,0.8832,0.885,0.8632,0.8632,0.8632,0.8631,0,0.7769,0.7807,0.789,0.793,0.799,0.8009,0.8029,0.8087,0.8105,0.8205,0.8194,0.8258,0.8378,0.8422,0.8459,0.8596,0.8584,0.8617,0.8682,0.8746,0.8762,0.8775,0.8824,0.8841,0.8629,0.8629,0.8629,0,0.7649,0.769,0.7733,0.7825,0.7864,0.7935,0.7889,0.7967,0.802,0.8003,0.8103,0.8132,0.8192,0.8304,0.8356,0.8332,0.8526,0.847,0.8477,0.8484,0.8547,0.8565,0.8581,0.8368,0.8367,0.8366,0,0,0.7603,0.7671,0.772,0.7816,0.7841,0.7871,0.7912,0.7917,0.797,0.7991,0.8028,0.8081,0.8151,0.8197,0.8264,0.8383,0.8397,0.8436,0.8449,0.8459,0.847,0.8536,0.8554,0.8362,0.8362,0.8362,0,0,0.7581,0.7641,0.7633,0.7746,0.7796,0.7852,0.791,0.7901,0.7963,0.7956,0.797,0.7984,0.809,0.8119,0.8065,0.8247,0.8198,0.8211,0.8224,0.8239,0.8252,0.8242,0.8025,0,0,0,0,0,0.7542,0.7634,0.7625,0.7647,0.7764,0.7856,0.7871,0.7884,0.7848,0.7894,0.7924,0.7909,0.8093,0.8045,0.8068,0.8128,0.8313,0.8322,0.833,0.8374,0.839,0.8404,0,0,0,0,0,0,0.7551,0.7578,0.7623,0.7682,0.7708,0.7853,0.7796,0.7802,0.7844,0.7839,0.7903,0.7911,0.7924,0.8034,0.8055,0.8112,0.8018,0.8316,0.8324,0.833,0.8379,0.8393,0.8404,0,0,0,0,0,0.7558,0.758,0.7764,0.7681,0.7704,0.7742,0.7792,0.7797,0.783,0.7876,0.7883,0.7835,0.7925,0.7943,0.8047,0.8102,0.8004,0.8012,0.8321,0.8327,0.8332,0.8386,0,0,0,0,0,0,0.7563,0.7585,0.7769,0.7776,0.7646,0.7734,0.7748,0.7793,0.7864,0.7872,0.7809,0.7804,0.7927,0.7941,0.7955,0.8098,0.7993,0.8001,0.8006,0.8326,0.833,0.8334,0,0,0,0,0,0,0.7574,0.7592,0.7773,0.7729,0.7732,0.7727,0.7739,0.7829,0.7866,0.7793,0.7791,0.7806,0.7907,0.794,0.795,0.809,0.7984,0.7992,0.7997,0.8,0.8329,0.8333,0,0,0,0,0,0,0.7581,0.7597,0.7727,0.7729,0.7731,0.7817,0.7807,0.7926,0.7826,0.779,0.7818,0.7814,0.7906,0.7917,0.7948,0.8083,0.8088,0.7985,0.799,0.7993,0.7995,0,0,0,0,0,0,0,0.7588,0.748,0.7724,0.7729,0.7731,0.7846,0.7848,0.785,0.7826,0.7822,0.7819,0.7816,0.7942,0.795,0.7959,0.8077,0,0,0.7984,0.7987,0,0,0,0,0,0,0,0,0.7474,0.7478,0.7724,0.7726,0.7727,0.7846,0.7848,0.785,0.7825,0.7822,0.7819,0.7817,0.7945,0.7951,0.7958,0,0,0,0,0,0,0,0,0,0,0,0,0,0,0,0.7725,0.7726,0,0.7846,0.7848,0.7849,0.7825,0.7822,0.782,0.7818,0.7946,0.7952,0.7957,0,0,0,0,0,0,0,0,0,0,0,0,0,0,0,0,0,0,0,0,0,0,0,0,0,0,0,0,0,0,0,0,0,0,0,0,0,0,0,0,0,0,0,0,0,0,0,0,0,0,0,0,0,0,0,0,0,0,0,0,0,0,0,0,0,0,0,0,0]}],[{"header":{"parameterUnit":"kt","parameterCategory":2,"dx":1,"dy":1,"la1":30.253999710083008,"la2":30.299108505249023,"lo1":-89.0895004272461,"lo2":-89.04439544677734,"nx":28,"ny":28,"refTime":"2022-10-30T21:00:00:Z","depth":0,"parameterNumber":2,"parameterNumberName":"V-component_of_WINDS"},"data":[-3.6747,-3.693,-3.6991,-3.7229,-3.7324,-3.7499,-3.7581,-3.7693,-3.7799,-3.8016,-3.8152,-3.8234,-3.8366,-3.8545,-3.8697,-3.873,-3.8791,-3.8812,-3.8848,-3.8697,-3.868,-3.8664,-3.8624,-3.8824,-3.8824,-3.8997,-3.8998,-3.8999,-3.6632,-3.6727,-3.687,-3.7051,-3.7175,-3.7191,-3.7337,-3.744,-3.7596,-3.7728,-3.7865,-3.8062,-3.8225,-3.8353,-3.8522,-3.8612,-3.8631,-3.8653,-3.8648,-3.8669,-3.851,-3.8466,-3.8636,-3.8636,-3.8636,-3.8636,-3.8636,-3.8636,-3.644,-3.6548,-3.6691,-3.6848,-3.6955,-3.7076,-3.719,-3.7287,-3.7429,-3.7611,-3.7657,-3.7836,-3.798,-3.8214,-3.8308,-3.8451,-3.8437,-3.8483,-3.8494,-3.8505,-3.8508,-3.8253,-3.8483,-3.8483,-3.8482,-3.8482,-3.8482,0,-3.6319,-3.6362,-3.6503,-3.6663,-3.678,-3.6911,-3.704,-3.7113,-3.7227,-3.734,-3.751,-3.7618,-3.7833,-3.8001,-3.8173,-3.8263,-3.8294,-3.8304,-3.8336,-3.8316,-3.8277,-3.8302,-3.804,-3.8297,-3.8296,-3.8295,-3.8294,-3.8293,-3.6131,-3.6248,-3.6428,-3.6519,-3.6605,-3.6751,-3.6851,-3.6942,-3.7045,-3.722,-3.7312,-3.748,-3.762,-3.7884,-3.7998,-3.816,-3.8176,-3.8268,-3.8201,-3.8177,-3.818,-3.8173,-3.8186,-3.8279,-3.8281,-3.8283,-3.8284,0,-3.6019,-3.6117,-3.6319,-3.6486,-3.6532,-3.6651,-3.6795,-3.6908,-3.6989,-3.7156,-3.72,-3.733,-3.7495,-3.7596,-3.7805,-3.7853,-3.8056,-3.8068,-3.8007,-3.8015,-3.8109,-3.8099,-3.8392,-3.8436,-3.8228,-3.823,-3.8231,0,-3.5898,-3.6049,-3.6187,-3.6299,-3.6471,-3.6558,-3.6726,-3.6813,-3.6938,-3.707,-3.7119,-3.7242,-3.7351,-3.7489,-3.7559,-3.7743,-3.7782,-3.783,-3.7847,-3.7827,-3.7821,-3.7884,-3.7875,-3.7879,-3.7877,-3.7876,-3.7875,0,-3.5714,-3.5964,-3.6147,-3.622,-3.6413,-3.6497,-3.6582,-3.6722,-3.682,-3.6963,-3.7027,-3.7188,-3.7276,-3.74,-3.7489,-3.744,-3.7715,-3.7666,-3.7764,-3.7762,-3.7821,-3.7816,-3.8049,-3.7873,-3.7872,-3.7872,-3.7871,0,-3.5631,-3.5771,-3.602,-3.6182,-3.6245,-3.6365,-3.6528,-3.6654,-3.6798,-3.685,-3.6963,-3.7008,-3.7175,-3.7119,-3.7352,-3.7263,-3.7348,-3.7409,-3.7418,-3.744,-3.7375,-3.7495,-3.7705,-3.7732,-3.7459,-3.7456,-3.7453,0,-3.5394,-3.5671,-3.5747,-3.5983,-3.6125,-3.617,-3.6306,-3.6432,-3.6512,-3.6645,-3.6734,-3.6886,-3.6865,-3.6927,-3.7029,-3.7127,-3.7243,-3.7114,-3.731,-3.7316,-3.7271,-3.7466,-3.7472,-3.7648,-3.741,-3.7415,-3.7418,0,-3.5223,-3.5454,-3.5491,-3.5578,-3.5756,-3.5875,-3.6031,-3.62,-3.6285,-3.642,-3.6555,-3.677,-3.6764,-3.6865,-3.6918,-3.7019,-3.7167,-3.6999,-3.7004,-3.7027,-3.7396,-3.7402,-3.7431,-3.7181,-3.7187,-3.7191,-3.7384,0,-3.5078,-3.5228,-3.5331,-3.552,-3.5627,-3.5779,-3.5882,-3.5982,-3.6022,-3.6102,-3.6301,-3.6431,-3.6604,-3.6663,-3.6703,-3.6901,-3.6884,-3.6875,-3.6829,-3.6956,-3.7022,-3.7049,-3.6722,-3.6721,-3.6721,-3.672,0,0,-3.4828,-3.5045,-3.5123,-3.5276,-3.5372,-3.5416,-3.557,-3.5668,-3.5866,-3.5932,-3.5906,-3.6228,-3.6335,-3.6566,-3.6613,-3.6683,-3.6729,-3.668,-3.6894,-3.6913,-3.6931,-3.7,-3.7026,-3.6719,-3.6719,-3.6719,-3.6718,0,-3.4796,-3.4899,-3.5049,-3.5154,-3.5312,-3.5389,-3.5424,-3.5589,-3.5648,-3.5842,-3.5877,-3.6009,-3.6263,-3.6372,-3.6461,-3.6655,-3.6675,-3.6699,-3.6769,-3.6884,-3.6904,-3.6922,-3.6993,-3.7017,-3.6717,-3.6717,-3.6717,0,-3.4646,-3.4766,-3.4849,-3.5065,-3.5169,-3.5314,-3.529,-3.5443,-3.5552,-3.5595,-3.5787,-3.5873,-3.6027,-3.6231,-3.6326,-3.6306,-3.662,-3.6539,-3.6546,-3.6559,-3.6676,-3.6699,-3.672,-3.6444,-3.6442,-3.6441,0,0,-3.4605,-3.4744,-3.4901,-3.5066,-3.5129,-3.5245,-3.5332,-3.5381,-3.5517,-3.5571,-3.5682,-3.5814,-3.5964,-3.606,-3.6205,-3.6413,-3.6454,-3.6501,-3.6514,-3.6524,-3.6542,-3.6662,-3.6685,-3.6436,-3.6436,-3.6435,0,0,-3.4586,-3.4773,-3.4789,-3.4992,-3.5119,-3.5286,-3.5384,-3.5408,-3.5548,-3.5542,-3.5633,-3.5673,-3.5865,-3.5948,-3.5866,-3.6191,-3.6143,-3.6165,-3.6129,-3.6147,-3.616,-3.6136,-3.5861,0,0,0,0,0,-3.4605,-3.475,-3.4762,-3.4811,-3.5086,-3.5279,-3.5315,-3.5392,-3.5356,-3.5432,-3.5529,-3.5544,-3.5923,-3.5852,-3.5901,-3.5992,-3.6368,-3.638,-3.6392,-3.6395,-3.6413,-3.6427,0,0,0,0,0,0,-3.4625,-3.4685,-3.4758,-3.4929,-3.4992,-3.5274,-3.5231,-3.5257,-3.535,-3.535,-3.5525,-3.555,-3.5621,-3.5833,-3.5875,-3.596,-3.5847,-3.6373,-3.6383,-3.6392,-3.6401,-3.6415,-3.6428,0,0,0,0,0,-3.4642,-3.469,-3.5109,-3.4928,-3.4982,-3.512,-3.5226,-3.5247,-3.5321,-3.5471,-3.5496,-3.5371,-3.5621,-3.5662,-3.5858,-3.5939,-3.5818,-3.5834,-3.638,-3.6388,-3.6395,-3.6408,0,0,0,0,0,0,-3.4654,-3.4711,-3.5122,-3.5142,-3.4878,-3.5105,-3.5143,-3.5239,-3.5438,-3.5464,-3.5321,-3.5318,-3.5623,-3.5655,-3.5686,-3.5927,-3.5794,-3.581,-3.582,-3.6386,-3.6392,-3.6398,0,0,0,0,0,0,-3.4686,-3.4727,-3.5132,-3.5065,-3.5078,-3.5092,-3.5126,-3.5304,-3.544,-3.5277,-3.5281,-3.5317,-3.5576,-3.565,-3.5675,-3.5949,-3.5776,-3.5791,-3.5802,-3.5809,-3.6391,-3.6396,0,0,0,0,0,0,-3.4705,-3.4741,-3.5061,-3.5071,-3.5081,-3.5307,-3.5251,-3.5528,-3.538,-3.5267,-3.5369,-3.5364,-3.5571,-3.5598,-3.5667,-3.5931,-3.5945,-3.5777,-3.5787,-3.5794,-3.5799,0,0,0,0,0,0,0,-3.472,-3.4461,-3.5006,-3.5075,-3.5084,-3.5322,-3.5328,-3.5333,-3.5379,-3.5375,-3.537,-3.5366,-3.5689,-3.5706,-3.5723,-3.5915,0,0,-3.5775,-3.5782,0,0,0,0,0,0,0,0,-3.4448,-3.4458,-3.5007,-3.5011,-3.5015,-3.5323,-3.5327,-3.5332,-3.5378,-3.5375,-3.5371,-3.5368,-3.5694,-3.5707,-3.5721,0,0,0,0,0,0,0,0,0,0,0,0,0,0,0,-3.5007,-3.501,0,-3.5324,-3.5327,-3.5331,-3.5378,-3.5375,-3.5372,-3.5369,-3.5697,-3.5708,-3.572,0,0,0,0,0,0,0,0,0,0,0,0,0,0,0,0,0,0,0,0,0,0,0,0,0,0,0,0,0,0,0,0,0,0,0,0,0,0,0,0,0,0,0,0,0,0,0,0,0,0,0,0,0,0,0,0,0,0,0,0,0,0,0,0,0,0,0,0,0]}]]]